Volver al catálogo

KUIPER-00148

ActivoComunicacionesLEO
NORAD 65769·PAYLOAD·🇺🇸 United States

Lanzado Sep 25, 2025 desde Cape Canaveral Space Force Station

Loading…

Próximos Pases (próximas 24 horas)

TLE

ActualizadoSource: CelesTrak SupGP

Época: Sep 14, 2026, 22:24 UTC

1 65769C 25217H   26257.93368056 -.00009911  00000+0 -12974-2 0  2575
2 65769  51.9034 266.2901 0000544  79.5310 155.1406 14.79941587    19

Sigue KUIPER-00148 en tiempo real con AllMySat

Download on the App Store